軌道要素
Epoch 2015 Sept. 15.0 TT = JDT 2457280.5
T 2015 Sept. 10.33983 TT MPCW
q 5.0225822 (2000.0) P Q
z +0.0051779 Peri. 228.04955 +0.08383404 -0.87795182
+/-0.0033842 Node 224.84678 +0.99010477 +0.01997015
e 0.9739937 Incl. 41.94229 -0.11253622 -0.47833230
From 30 observations 2014 Nov. 22-Dec. 18, mean residual 0".5.
|